TimeCDT,TemperatureF,Dew PointF,Humidity,Sea Level PressureIn,VisibilityMPH,Wind Direction,Wind SpeedMPH,Gust SpeedMPH,PrecipitationIn,Events,Conditions,WindDirDegrees,DateUTC
12:55 AM,64.9,57.6,77,29.86,6.0,NNW,8.1,-,N/A,,Haze,330,2011-10-14 05:55:00
1:00 AM,64.4,57.2,77,29.86,4.0,NNW,6.9,-,N/A,,Haze,330,2011-10-14 06:00:00
1:15 AM,64.4,57.2,77,29.86,6.0,NNW,6.9,-,N/A,,Haze,340,2011-10-14 06:15:00
1:55 AM,62.1,57.4,85,29.86,10.0,North,3.5,-,N/A,,Clear,360,2011-10-14 06:55:00
2:55 AM,58.6,56.5,93,29.87,10.0,NNW,6.9,-,N/A,,Clear,340,2011-10-14 07:55:00
3:55 AM,58.8,55.9,90,29.87,10.0,North,5.8,-,N/A,,Clear,350,2011-10-14 08:55:00
4:55 AM,55.4,54.5,97,29.88,10.0,North,4.6,-,N/A,,Clear,350,2011-10-14 09:55:00
5:55 AM,57.7,55.9,94,29.90,10.0,Calm,Calm,-,N/A,,Clear,0,2011-10-14 10:55:00
6:55 AM,54.0,53.6,99,29.91,10.0,Calm,Calm,-,N/A,,Clear,0,2011-10-14 11:55:00
7:55 AM,59.2,57.9,96,29.94,10.0,North,3.5,-,N/A,,Clear,10,2011-10-14 12:55:00
8:55 AM,65.7,57.9,76,29.96,10.0,North,8.1,-,N/A,,Clear,350,2011-10-14 13:55:00
9:55 AM,73.2,58.3,59,29.96,10.0,North,8.1,-,N/A,,Clear,10,2011-10-14 14:55:00
10:55 AM,77.9,53.4,43,29.97,10.0,North,10.4,-,N/A,,Clear,360,2011-10-14 15:55:00
11:55 AM,79.7,50.2,36,29.96,10.0,NNE,10.4,-,N/A,,Clear,30,2011-10-14 16:55:00
12:55 PM,81.3,46.9,30,29.94,10.0,North,11.5,17.3,N/A,,Clear,350,2011-10-14 17:55:00
1:45 PM,80.6,50.0,34,29.93,10.0,Calm,Calm,-,N/A,,Light Drizzle,0,2011-10-14 18:45:00
1:55 PM,81.9,49.3,32,29.92,10.0,NNE,6.9,-,0.00,,Light Drizzle,20,2011-10-14 18:55:00
1:58 PM,82.4,50.0,32,29.92,10.0,Variable,3.5,-,N/A,,Clear,0,2011-10-14 18:58:00
2:22 PM,82.4,48.2,30,29.92,10.0,West,4.6,-,N/A,,Light Drizzle,280,2011-10-14 19:22:00
2:24 PM,82.4,48.2,30,29.92,10.0,WNW,4.6,-,N/A,,Clear,290,2011-10-14 19:24:00
2:44 PM,82.4,48.2,30,29.92,10.0,NNE,5.8,-,N/A,,Light Drizzle,20,2011-10-14 19:44:00
2:54 PM,82.4,46.4,28,29.92,10.0,Calm,Calm,-,N/A,,Clear,0,2011-10-14 19:54:00
2:55 PM,82.4,46.9,29,29.92,10.0,Calm,Calm,-,0.00,,Clear,0,2011-10-14 19:55:00
3:55 PM,78.3,57.9,49,29.91,10.0,SSW,9.2,-,N/A,,Clear,200,2011-10-14 20:55:00
4:55 PM,77.5,56.1,47,29.93,10.0,WSW,8.1,-,N/A,,Clear,240,2011-10-14 21:55:00
5:55 PM,75.2,59.0,57,29.94,10.0,WSW,6.9,-,N/A,,Clear,240,2011-10-14 22:55:00
6:55 PM,73.2,59.7,63,29.96,10.0,WSW,5.8,-,N/A,,Clear,250,2011-10-14 23:55:00
7:55 PM,66.6,60.4,81,29.97,10.0,Calm,Calm,-,N/A,,Clear,0,2011-10-15 00:55:00
8:55 PM,66.4,57.7,74,29.99,10.0,WNW,4.6,-,N/A,,Clear,290,2011-10-15 01:55:00
9:55 PM,69.4,58.3,68,30.00,10.0,WNW,6.9,-,N/A,,Clear,290,2011-10-15 02:55:00
10:55 PM,59.2,57.2,93,30.02,10.0,NNW,4.6,-,N/A,,Clear,340,2011-10-15 03:55:00
11:55 PM,58.1,57.0,96,30.02,10.0,NNW,4.6,-,N/A,,Clear,340,2011-10-15 04:55:00